Moffett NAS, CA

7:05 PM PDT on July 25, 2017 (GMT -0700)
Moffett Federal Air Field

Weather History for KNUQ - November, 2007

Change the Weather History Date:

Saturday, November 17, 2007

  Actual Average Record
Temperature  
Mean Temperature 58 °F 56 °F  
Max Temperature 66 °F 65 °F 80 °F (1989)
Min Temperature 51 °F 47 °F 30 °F (1958)
Degree Days  
Heating Degree Days 6    
Month to date heating degree days  
Since 1 July heating degree days  
Cooling Degree Days 0    
Month to date cooling degree days  
Year to date cooling degree days  
Growing Degree Days 8 (Base 50)    
Moisture  
Dew Point 51 °F    
Average Humidity 81    
Maximum Humidity 94    
Minimum Humidity 60    
Precipitation  
Precipitation 0.01 in 0.06 in 0.58 in (1983)
Month to date precipitation 0.86  
Year to date precipitation 11.34  
Sea Level Pressure  
Sea Level Pressure 30.13 in    
Wind  
Wind Speed 2 mph (NNW)    
Max Wind Speed 13 mph    
Max Gust Speed -    
Visibility 9 miles    
Events      
T = Trace of Precipitation, MM = Missing Value Source: NWS Daily Summary

Daily Weather History Graph

Daily Weather History Graph

Search for Another Location

Airport or City:

Trip Planner

Search our weather history database for the weather conditions in past years. The results will help you decide how hot, cold, wet, or windy it might be!

Date:

Astronomy

Nov. 17, 2007 Rise Set
Actual Time 6:49 AM PST 4:56 PM PST
Civil Twilight 6:21 AM PST 5:24 PM PST
Nautical Twilight 5:49 AM PST 5:55 PM PST
Astronomical Twilight 5:18 AM PST 6:26 PM PST
Moon 12:54 PM PST (11/17) 11:53 PM PST (11/17)
Length of Visible Light 11h 02m
Length of Day
10h 06m
Waxing Crescent, 49% of the Moon is Illuminated
Nov 17
Waxing Crescent
Nov 17
First Quarter
Nov 24
Full
Dec 1
Last Quarter
Dec 9
New

Hourly Weather History & Observations

Time (PST) Temp. Dew Point Humidity Pressure Visibility Wind Dir Wind Speed Gust Speed Precip Events Conditions
12:56 AM 55.0 °F 50.0 °F 83% 30.15 in 10.0 mi Calm Calm - N/A   Mostly Cloudy
1:56 AM 55.0 °F 50.0 °F 83% 30.16 in 9.0 mi Calm Calm - N/A   Overcast
2:56 AM 55.0 °F 50.0 °F 83% 30.15 in 9.0 mi Calm Calm - N/A   Mostly Cloudy
3:09 AM 53.6 °F 48.2 °F 82% 30.14 in 9.0 mi Calm Calm - N/A   Scattered Clouds
3:56 AM 52.0 °F 48.0 °F 86% 30.15 in 9.0 mi Calm Calm - N/A   Clear
4:56 AM 52.0 °F 48.0 °F 86% 30.17 in 8.0 mi Calm Calm - N/A   Clear
5:56 AM 51.1 °F 46.9 °F 86% 30.17 in 10.0 mi Calm Calm - N/A   Clear
6:56 AM 51.1 °F 46.9 °F 86% 30.18 in 7.0 mi Calm Calm - N/A   Clear
7:56 AM 54.0 °F 51.1 °F 90% 30.19 in 10.0 mi Calm Calm - N/A   Clear
8:56 AM 57.9 °F 51.1 °F 78% 30.19 in 10.0 mi SE 3.5 mph - N/A   Clear
9:56 AM 61.0 °F 51.1 °F 70% 30.17 in 10.0 mi South 4.6 mph - N/A   Clear
10:56 AM 66.0 °F 52.0 °F 60% 30.17 in 10.0 mi North 3.5 mph - N/A   Clear
11:56 AM 64.9 °F 53.1 °F 65% 30.15 in 10.0 mi North 10.4 mph - N/A   Clear
12:56 PM 64.9 °F 52.0 °F 63% 30.14 in 10.0 mi NNW 10.4 mph - N/A   Clear
1:56 PM 64.9 °F 53.1 °F 65% 30.12 in 10.0 mi NNW 12.7 mph - N/A   Clear
2:56 PM 64.9 °F 54.0 °F 68% 30.11 in 10.0 mi NNW 6.9 mph - N/A   Clear
3:56 PM 64.0 °F 54.0 °F 70% 30.10 in 10.0 mi North 6.9 mph - N/A   Clear
4:56 PM 60.1 °F 53.1 °F 78% 30.09 in 10.0 mi North 3.5 mph - N/A   Clear
5:56 PM 57.9 °F 53.1 °F 84% 30.09 in 10.0 mi NNW 3.5 mph - N/A   Clear
6:56 PM 57.9 °F 54.0 °F 87% 30.10 in 10.0 mi Calm Calm - N/A   Clear
7:56 PM 57.0 °F 53.1 °F 87% 30.10 in 10.0 mi Calm Calm - N/A   Scattered Clouds
8:03 PM 57.2 °F 53.6 °F 88% 30.09 in 10.0 mi Calm Calm - N/A   Partly Cloudy
8:56 PM 55.9 °F 52.0 °F 87% 30.10 in 7.0 mi Calm Calm - 0.01 in   Scattered Clouds
9:21 PM 55.4 °F 51.8 °F 88% 30.10 in 3.0 mi Calm Calm - N/A   Scattered Clouds
9:56 PM 55.9 °F 52.0 °F 87% 30.11 in 10.0 mi Calm Calm - N/A   Mostly Cloudy
10:56 PM 55.9 °F 53.1 °F 90% 30.11 in 8.0 mi Calm Calm - N/A   Overcast
11:03 PM 55.4 °F 53.6 °F 94% 30.10 in 7.0 mi Calm Calm - N/A   Overcast
11:34 PM 55.4 °F 51.8 °F 88% 30.10 in 8.0 mi NW 4.6 mph - N/A   Overcast
11:56 PM 55.0 °F 52.0 °F 89% 30.12 in 5.0 mi WNW 4.6 mph - N/A   Overcast